Location: Errabaliem
(16.8108°N, 80.4255°E)
Time: 15:46:13
(UTC+00:00)

Cosmos 1939 Rocket - Pass Details

Date: 05 August 2024
Orbit: 511 x 552 km, 97.5° (Epoch: 12 September)

Event Time Altitude Azimuth Distance (km) Brightness Sun altitude
Rises 23:19:40 0° 0° (N) 2,635 6.6 -14.4°
Reaches altitude 10° 23:21:50 10° 353° (N) 1,753 5.6 -13.9°
Maximum altitude 23:25:24 41° 283° (WNW) 772 3.2 -13.1°
Enters shadow 23:28:17 15° 216° (SW) 1,496 4.5 -12.5°
